Simultaneous Nadir Overpasses (SNOs) Predictions

Prediction of SNOs over PacNW region [( 10.00, 139.50) to ( 22.70, 165.60)] between AQUA and NPP Satellites:

Table of predicted SNOs over PacNW region for the next 30.0 days since TLE Epoch: 4/17/2020
Index Date (AQUA) Time (AQUA) AQUA Lat,Lon Date (NPP) Time (NPP) NPP Lat,Lon Distance(km) Time Diff (sec)
1 04/22/2020 15:59:37 22.58, 147.45 04/22/2020 16:01:30 23.21, 144.56 305.00 113
2 04/30/2020 15:10:07 22.62, 159.83 04/30/2020 15:10:45 23.19, 157.24 272.56 38
3 05/08/2020 15:59:30 22.60, 147.47 05/08/2020 16:01:28 23.26, 144.58 305.61 118




NCC Satellite Simultaneous Nadir Overpasses (SNOs) Prediction Service
